Juneau, AK

6:07 PM AKDT on March 26, 2017 (GMT -0800)
Juneau International

Weather History for PAJN - December, 2012

Change the Weather History Date:

Thursday, December 6, 2012

  Actual Average Record
Temperature  
Mean Temperature 24 °F 31 °F  
Max Temperature 26 °F 35 °F 47 °F (1964)
Min Temperature 21 °F 27 °F -9 °F (1995)
Degree Days  
Heating Degree Days 41 34  
Month to date heating degree days 269 204  
Since 1 July heating degree days 3210 2835  
Moisture  
Dew Point 22 °F    
Average Humidity 90    
Maximum Humidity 96    
Minimum Humidity 84    
Precipitation  
Precipitation 0.17 in 0.20 in 1.26 in (1990)
Month to date precipitation 0.81 1.22  
Year to date precipitation 59.31 57.65  
Snow  
Snow 4.40 in 0.50 in 7.20 in (1975)
Month to date snowfall 15.1 3.0  
Since 1 July snowfall 32.1 16.9  
Snow Depth 15.00 in    
Sea Level Pressure  
Sea Level Pressure 29.75 in    
Wind  
Wind Speed 2 mph (ENE)    
Max Wind Speed 10 mph    
Max Gust Speed 13 mph    
Visibility 6 miles    
Events Fog , Snow    
T = Trace of Precipitation, MM = Missing Value Source: NWS Daily Summary

Daily Weather History Graph

Daily Weather History Graph

Search for Another Location

Airport or City:

Trip Planner

Search our weather history database for the weather conditions in past years. The results will help you decide how hot, cold, wet, or windy it might be!

Date:

Astronomy

Dec. 06, 2012 Rise Set
Actual Time 8:30 AM AKST 3:08 PM AKST
Civil Twilight 7:38 AM AKST 4:00 PM AKST
Nautical Twilight 6:46 AM AKST 4:52 PM AKST
Astronomical Twilight 5:58 AM AKST 5:40 PM AKST
Moon No Moon Rise 12:03 PM AKST (12/6)
Length of Visible Light 8h 21m
Length of Day
6h 38m
Waning Gibbous, 48% of the Moon is Illuminated
Dec 6
Waning Gibbous
Dec 12
New
Dec 19
First Quarter
Dec 28
Full
Jan 4
Last Quarter

Hourly Weather History & Observations

Time (AKST) Temp. Windchill Dew Point Humidity Pressure Visibility Wind Dir Wind Speed Gust Speed Precip Events Conditions
12:53 AM 21.9 °F - 21.0 °F 96% 29.76 in 10.0 mi Calm Calm - 0.00 in   Overcast
1:37 AM 24.8 °F 19.1 °F 21.2 °F 86% 29.76 in 2.0 mi NE 4.6 mph - 0.01 in Snow Light Snow
1:43 AM 24.8 °F 20.5 °F 21.2 °F 86% 29.76 in 3.0 mi SSW 3.5 mph - 0.01 in Snow Light Snow
1:53 AM 24.1 °F 18.2 °F 21.9 °F 91% 29.76 in 4.0 mi WSW 4.6 mph - 0.01 in Snow Light Snow
2:23 AM 24.8 °F - 23.0 °F 93% 29.76 in 1.5 mi Calm Calm - 0.01 in Snow Light Snow
2:40 AM 24.8 °F - 21.2 °F 86% 29.77 in 1.0 mi Calm Calm - 0.02 in Snow Light Snow
3:16 AM 26.6 °F 20.0 °F 24.8 °F 93% 29.76 in 4.0 mi ENE 5.8 mph - 0.01 in Snow Light Snow
3:26 AM 26.6 °F 19.1 °F 23.0 °F 86% 29.76 in 7.0 mi ENE 6.9 mph - 0.01 in Snow Light Snow
3:36 AM 26.6 °F 19.1 °F 23.0 °F 86% 29.76 in 10.0 mi East 6.9 mph - 0.01 in Snow Light Snow
3:53 AM 24.1 °F 18.2 °F 23.0 °F 96% 29.76 in 10.0 mi SE 4.6 mph - 0.01 in   Overcast
4:53 AM 25.0 °F - 21.9 °F 88% 29.77 in 10.0 mi Calm Calm - N/A   Overcast
5:53 AM 23.0 °F - 21.9 °F 96% 29.77 in 10.0 mi Calm Calm - N/A   Overcast
6:06 AM 21.2 °F - 19.4 °F 93% 29.77 in 10.0 mi Calm Calm - N/A   Overcast
6:53 AM 23.0 °F - 21.0 °F 92% 29.77 in 7.0 mi Calm Calm - 0.00 in Snow Light Snow
7:40 AM 24.8 °F - 23.0 °F 93% 29.77 in 1.8 mi Calm Calm - 0.00 in Snow Light Snow
7:53 AM 25.0 °F - 21.9 °F 88% 29.77 in 0.8 mi Calm Calm - 0.01 in Snow Light Snow
8:26 AM 24.8 °F - 24.8 °F 100% 29.77 in 0.8 mi Calm Calm - 0.04 in Snow Light Snow
8:41 AM 24.8 °F - 23.0 °F 93% 29.77 in 1.0 mi Calm Calm - 0.05 in Snow Light Snow
8:53 AM 25.0 °F - 23.0 °F 92% 29.77 in 0.8 mi Calm Calm - 0.06 in Snow Light Snow
9:53 AM 26.1 °F 17.6 °F 24.1 °F 92% 29.78 in 0.5 mi ENE 8.1 mph - 0.03 in Fog , Snow Snow
10:14 AM 26.6 °F 19.1 °F 23.0 °F 86% 29.78 in 1.0 mi ENE 6.9 mph - 0.00 in Snow Light Snow
10:53 AM 26.1 °F 19.4 °F 23.0 °F 88% 29.80 in 3.0 mi ENE 5.8 mph - 0.01 in Snow Light Snow
11:23 AM 24.8 °F 19.1 °F 21.2 °F 86% 29.79 in 10.0 mi East 4.6 mph - 0.00 in Snow Light Snow
11:53 AM 26.1 °F - 23.0 °F 88% 29.79 in 10.0 mi Calm Calm - 0.00 in   Overcast
12:53 PM 24.1 °F - 21.0 °F 88% 29.78 in 10.0 mi Calm Calm - N/A   Overcast
1:53 PM 26.1 °F 20.5 °F 23.0 °F 88% 29.77 in 10.0 mi West 4.6 mph - N/A   Overcast
2:53 PM 25.0 °F - 23.0 °F 92% 29.75 in 10.0 mi Calm Calm - 0.00 in   Overcast
3:53 PM 24.1 °F - 23.0 °F 96% 29.74 in 10.0 mi Calm Calm - N/A   Mostly Cloudy
4:53 PM 21.9 °F - 19.9 °F 92% 29.73 in 10.0 mi Calm Calm - N/A   Overcast
5:53 PM 21.9 °F - 19.9 °F 92% 29.71 in 10.0 mi Calm Calm - N/A   Overcast
6:53 PM 21.9 °F - 19.9 °F 92% 29.70 in 10.0 mi Calm Calm - N/A   Overcast
7:53 PM 21.9 °F - 19.9 °F 92% 29.69 in 10.0 mi Calm Calm - N/A   Overcast
8:53 PM 21.9 °F - 21.0 °F 96% 29.69 in 10.0 mi Calm Calm - N/A   Overcast
9:53 PM 23.0 °F - 21.0 °F 92% 29.68 in 10.0 mi Calm Calm - N/A   Overcast
10:53 PM 23.0 °F - 21.0 °F 92% 29.66 in 10.0 mi Calm Calm - N/A   Overcast
11:53 PM 23.0 °F 15.8 °F 19.9 °F 88% 29.65 in 10.0 mi NNE 5.8 mph - N/A   Overcast